Flagstaff, AZ

2:39 PM MST on September 21, 2017 (GMT -0700)
Flagstaff Pulliam

Weather History for KFLG - September, 2012

Change the Weather History Date:

Saturday, September 15, 2012

  Actual Average Record
Temperature  
Mean Temperature 55 °F 58 °F  
Max Temperature 75 °F 73 °F 87 °F (1956)
Min Temperature 34 °F 42 °F 26 °F (1903)
Degree Days  
Heating Degree Days 10 7  
Month to date heating degree days 57 78  
Since 1 July heating degree days 91 166  
Cooling Degree Days 0 0  
Month to date cooling degree days 0 0  
Year to date cooling degree days 164 114  
Growing Degree Days 5 (Base 50)    
Moisture  
Dew Point 30 °F    
Average Humidity 49    
Maximum Humidity 82    
Minimum Humidity 16    
Precipitation  
Precipitation 0.00 in 0.09 in 0.46 in (1906)
Month to date precipitation 0.26 1.30  
Year to date precipitation 10.76 15.49  
Snow  
Snow 0.00 in 0.00 in 0.00 in (2002)
Month to date snowfall 0.0 0.0  
Since 1 July snowfall 0.0 0.0  
Snow Depth 0.00 in    
Sea Level Pressure  
Sea Level Pressure 30.21 in    
Wind  
Wind Speed 3 mph (NE)    
Max Wind Speed 16 mph    
Max Gust Speed 23 mph    
Visibility 10 miles    
Events      
T = Trace of Precipitation, MM = Missing Value Source: NWS Daily Summary

Daily Weather History Graph

Daily Weather History Graph

Search for Another Location

Airport or City:

Trip Planner

Search our weather history database for the weather conditions in past years. The results will help you decide how hot, cold, wet, or windy it might be!

Date:

Astronomy

Sep. 15, 2012 Rise Set
Actual Time 6:09 AM MST 6:32 PM MST
Civil Twilight 5:44 AM MST 6:58 PM MST
Nautical Twilight 5:14 AM MST 7:27 PM MST
Astronomical Twilight 4:44 AM MST 7:58 PM MST
Moon 5:43 AM MST (9/15) 6:07 PM MST (9/15)
Length of Visible Light 13h 13m
Length of Day
12h 22m
Waning Crescent, 0% of the Moon is Illuminated
Sep 15
Waning Crescent
Sep 15
New
Sep 22
First Quarter
Sep 29
Full
Oct 8
Last Quarter

Hourly Weather History & Observations

Time (MST) Temp. Dew Point Humidity Pressure Visibility Wind Dir Wind Speed Gust Speed Precip Events Conditions
12:57 AM 41.0 °F 35.1 °F 79% 30.27 in 10.0 mi Calm Calm - N/A   Clear
1:57 AM 41.0 °F 34.0 °F 76% 30.25 in 10.0 mi Calm Calm - N/A   Clear
2:57 AM 39.9 °F 33.1 °F 77% 30.25 in 10.0 mi Calm Calm - N/A   Clear
3:57 AM 37.9 °F 32.0 °F 79% 30.25 in 10.0 mi Calm Calm - N/A   Clear
4:57 AM 37.0 °F 30.9 °F 79% 30.25 in 10.0 mi Calm Calm - N/A   Clear
6:57 AM 39.9 °F 33.1 °F 77% 30.27 in 10.0 mi Calm Calm - N/A   Clear
7:57 AM 54.0 °F 35.1 °F 49% 30.25 in 10.0 mi Calm Calm - N/A   Clear
8:57 AM 62.1 °F 33.1 °F 34% 30.24 in 10.0 mi ENE 4.6 mph - N/A   Clear
9:57 AM 66.0 °F 32.0 °F 28% 30.24 in 10.0 mi NE 5.8 mph - N/A   Clear
10:57 AM 70.0 °F 30.9 °F 24% 30.22 in 10.0 mi Calm Calm - N/A   Clear
11:57 AM 71.1 °F 32.0 °F 24% 30.22 in 10.0 mi NE 10.4 mph 18.4 mph N/A   Clear
12:57 PM 73.9 °F 30.9 °F 21% 30.20 in 10.0 mi NE 12.7 mph 18.4 mph N/A   Clear
1:57 PM 73.9 °F 27.0 °F 18% 30.17 in 10.0 mi NNE 9.2 mph 19.6 mph N/A   Clear
2:57 PM 73.9 °F 26.1 °F 17% 30.16 in 10.0 mi ENE 4.6 mph - N/A   Clear
3:57 PM 73.9 °F 24.1 °F 16% 30.16 in 10.0 mi NE 6.9 mph - N/A   Clear
4:57 PM 73.0 °F 25.0 °F 17% 30.16 in 10.0 mi Variable 4.6 mph - N/A   Clear
5:57 PM 70.0 °F 25.0 °F 18% 30.17 in 10.0 mi East 4.6 mph - N/A   Clear
6:57 PM 61.0 °F 28.0 °F 29% 30.19 in 10.0 mi Calm Calm - N/A   Clear
7:57 PM 53.1 °F 28.0 °F 38% 30.18 in 10.0 mi Calm Calm - N/A   Clear
8:57 PM 50.0 °F 28.0 °F 43% 30.17 in 10.0 mi Calm Calm - N/A   Clear
9:57 PM 46.0 °F 30.0 °F 54% 30.17 in 10.0 mi Calm Calm - N/A   Clear
10:57 PM 44.1 °F 30.0 °F 58% 30.16 in 10.0 mi Calm Calm - N/A   Clear
11:57 PM 43.0 °F 28.9 °F 58% 30.16 in 10.0 mi Calm Calm - N/A   Clear